Probability
0 0 0 0 0 0 0 0 0 0 0 0 0 0 0 0 0 0 0 0 0 0 0 0 0 0 0 0 0 0 0 0 0 0 0 0 0 0 0 0 0 0 0
0 0 0 0 0 0 0 0 0 0 0 0 0 0 0 0 0 0 0 0 0 0 0 0 0 0 0 0 0 0 0 0 0 0 0 0 0 0 0 0 0 0 0
0 0 0 0 0 0 0 0 0 0 0 0 0 0 0 0 0 0 0 0 0 0 0 0 0 0 0 0 0 0 0 0 0 0 0 0 0 0 0 0 0 0 0
0 0 0 0 0 0 0 0 0 0 0 0 0 0 0 0 0 0 0 0 0 0 0 0 0 0 0 0 0 0 0 0 0 0 0 0 0 0 0 0 0 0 0
0 0 0 0 0 0 0 0 0 0 0 0 0 0 0 0 0 0 0 0 0 0 0 0 0 0 0 0 0 0 0 0 0 0 0 0 0 0 0 0 0 0 0
0 0 0 0 0 0 0 0 0 0 0 0 0 0 0 0 0 0 0 0 0 0 0 0 0 0 0 0 0 0 0 0 0 0 0 0 0 0 0 0 0 0 0
0 0 0 0 0 0 0 0 0 0 0 0 0 0 0 0 0 0 0 0 0 0 0 0 0 0 0 0 0 0 0 0 0 0 0 0 0 0 0 0 0 0 0
0 0 0 0 0 0 0 0 0 0 0 0 0 0 0 0 0 0 0 0 0 0 0 0 0 0 0 0 0 0 0 0 0 0 0 0 0 0 0 0 0 0 0
0 0 0 0 0 0 0 0 0 0 0 0 0 0 0 0 0 0 0 0 0 0 0 0 0 0 0 0 0 0 0 0 0 0 0 0 0 0 0 0 0 0 0
0 0 0 0 0 0 0 0 0 0 0 0 0 0 0 0 0 0 0 0 0 0 0 0 0 0 0 0 0 0 0 0 0 0 0 0 0 0 0 0 0 0 0
0 0 0 0 0 0 0 0 0 0 0 0 0 0 0 0 0 0 0 0 0 0 0 0 0 0 0 0 0 0 0 0 0 0 0 0 0 0 0 0 0 0 0
0 0 0 0 0 0 0 0 0 0 0 0 0 0 0 0 0 0 0 0 0 0 0 0 0 0 0 0 0 0 0 0 0 0 0 0 0 0 0 0 0 0 0
0 0 0 0 0 0 0 0 0 0 0 0 0 0 0 0 0 0 0 0 0 0 0 0 0 0 0 0 0 0 0 0 0 0 0 0 0 0 0 0 0 0 0
0 0 0 0 1 0 0 0 0 0 0 0 0 0 0 0 0 0 0 0 0 0 0 0 0 0 0 0 0 0 0 0 0 0 0 0 0 0 0 0 0 0 0
0 0 0 0 0 0 0 0 0 0 0 0 0 0 0 0 0 0 0 0 0 0 0 0 0 0 0 0 0 0 0 0 0 0 0 0 0 0 0 0 0 0 0
0 0 0 0 0 0 0 0 0 0 0 0 0 0 0 1 1 0 0 0 0 0 0 0 0 0 0 0 0 0 0 0 0 0 0 0 0 0 0 0 0 0 0
0 0 0 0 0 0 0 0 0 0 0 0 0 1 1 2 2 1 1 0 0 0 0 0 0 0 0 0 0 0 0 0 0 0 0 0 0 0 0 0 0 0 0
0 0 0 0 0 0 1 1 0 0 0 0 1 2 2 2 2 2 1 0 0 0 0 0 0 0 0 0 0 0 0 0 0 0 0 0 0 0 0 0 0 0 0
1 1 1 1 1 1 2 2 1 0 0 0 1 2 2 1 1 1 1 0 0 0 0 0 0 0 0 0 0 0 0 0 0 0 0 0 0 0 0 0 0 0 0
2 2 2 2 2 3 3 2 1 0 0 0 0 1 1 0 0 0 0 0 0 0 0 0 0 0 0 0 0 0 0 0 0 0 0 0 0 0 0 0 0 0 0
3 3 3 2 2 2 2 1 1 0 0 0 0 0 0 0 0 0 0 0 0 0 0 0 0 0 0 0 0 0 0 0 0 0 0 0 0 0 0 0 0 0 0
3 2 1 1 1 1 1 0 0 0 0 0 0 0 0 0 0 0 0 0 0 0 0 0 0 0 0 0 0 0 0 0 0 0 0 0 0 0 0 0 0 0 0
2 1 0 0 0 0 0 0 0 0 0 0 0 0 0 0 0 0 0 0 0 0 0 0 0 0 0 0 0 0 0 0 0 0 0 0 0 0 0 0 0 0 0
1 0 0 0 0 0 0 0 0 0 0 0 0 0 0 0 0 0 0 0 0 0 0 0 0 0 0 0 0 0 0 0 0 0 0 0 0 0 0 0 0 0 0
0 0 0 0 0 0 0 0 0 0 0 0 0 0 0 0 0 0 0 0 0 0 0 0 0 0 0 0 0 0 0 0 0 0 0 0 0 0 0 0 0 0 0
0 0 0 0 0 0 0 0 0 0 0 0 0 0 0 0 0 0 0 0 0 0 0 0 0 0 0 0 0 0 0 0 0 0 0 0 0 0 0 0 0 0 0
Wind_Speed
3 2 2 2 2 2 2 2 2 2 2 3 3 4 4 5 4 3 2 7 8 7 8 8 8 8 8 8 8 8 8 8 8 7 7 7 7 7 7 7 7 6 6
3 3 2 2 2 2 2 2 2 2 2 2 3 3 4 4 4 3 2 3 7 7 7 8 8 8 8 8 8 8 8 8 8 7 7 7 7 7 6 7 7 6 5
4 4 3 2 2 2 3 2 2 2 2 2 2 3 3 3 3 3 2 1 2 5 6 6 7 7 8 8 8 8 7 7 8 7 7 6 6 6 6 6 6 6 6
5 4 3 3 2 2 2 2 2 2 2 2 2 1 2 2 2 3 2 2 2 2 4 5 6 6 7 8 8 9 8 8 8 8 8 7 7 7 6 6 6 6 6
6 5 4 3 3 3 2 2 2 2 2 2 1 1 1 1 1 2 3 3 3 2 2 3 5 6 7 8 8 9 9 9 9 9 9 9 8 8 7 7 7 7 7
6 5 4 4 4 3 2 2 2 2 2 2 2 2 1 0 1 2 3 2 3 4 3 3 3 4 7 7 7 8 9 9 9 10 10 10 10 9 8 8 8 7 8
7 6 4 4 4 4 4 4 3 3 2 2 2 2 2 1 1 2 2 2 3 4 4 4 3 3 3 6 7 8 9 9 9 10 10 10 10 9 9 9 9 9 9
7 7 6 5 5 4 4 4 3 3 2 1 2 2 1 2 2 1 2 3 4 3 4 5 4 4 4 3 4 8 9 9 10 10 9 9 9 9 9 9 9 9 9
7 6 7 6 5 5 4 4 4 5 3 1 1 3 3 2 2 2 2 2 3 3 4 4 5 5 5 4 4 6 9 9 10 10 10 9 9 9 9 10 10 10 9
7 7 7 6 6 5 5 5 4 3 4 3 1 1 1 3 2 1 2 1 2 3 4 4 4 5 5 5 5 7 9 9 9 10 10 10 10 9 10 10 10 10 10
6 7 7 6 6 5 5 5 5 4 3 4 3 2 2 1 1 2 1 2 2 2 3 4 4 4 5 5 5 7 9 9 9 10 9 9 10 10 10 11 11 11 11
4 6 6 6 6 5 5 5 5 5 4 4 3 3 3 3 3 3 2 2 2 2 2 3 4 4 4 5 7 9 10 10 10 10 9 9 9 9 10 11 11 11 11
4 6 6 6 5 5 5 5 5 5 5 5 4 3 3 3 3 3 2 2 1 2 2 2 3 3 4 4 5 9 9 10 10 10 10 10 9 9 9 9 10 10 10
5 6 7 7 6 6 6 5 4 4 4 4 5 4 3 3 3 3 3 3 1 1 2 3 2 3 3 4 6 8 6 9 10 10 10 10 10 9 9 9 9 9 10
5 7 7 7 6 6 6 6 4 5 5 5 4 4 3 3 3 3 3 3 3 2 3 3 2 2 3 3 5 5 6 8 10 10 10 10 10 10 10 10 10 10 10
5 6 6 6 6 6 6 5 4 5 5 4 4 4 4 3 3 2 3 2 3 3 3 3 3 2 2 3 4 4 5 7 9 10 10 10 10 10 11 11 11 11 11
6 7 7 7 6 6 6 5 5 5 6 5 4 5 5 4 3 3 2 3 3 3 4 3 2 2 2 3 2 2 3 4 4 8 9 10 10 11 11 11 11 11 12
6 6 6 6 6 6 6 6 6 6 6 6 5 5 5 4 4 3 3 3 3 4 4 4 2 2 3 2 2 2 2 3 4 6 8 9 10 10 11 11 11 11 12
6 5 5 6 5 5 5 5 5 5 5 5 5 5 5 4 4 3 3 3 3 3 3 3 3 2 2 1 2 2 2 2 3 4 6 7 8 9 9 10 10 11 11
6 6 5 6 5 5 5 5 5 4 4 3 3 4 4 4 4 4 4 4 3 3 3 3 3 2 2 2 1 2 2 2 3 3 4 4 5 6 8 8 9 9 10
5 5 4 4 4 4 4 5 5 4 3 2 2 2 3 3 3 3 3 3 3 3 2 3 2 2 2 1 2 1 2 3 3 2 3 3 3 3 4 6 7 8 8
3 4 4 4 3 3 5 7 5 4 3 3 2 2 2 1 1 2 2 3 3 3 3 2 2 3 3 2 2 2 2 2 3 1 2 3 2 4 4 5 6 8 8
4 5 4 5 4 3 4 6 6 4 3 3 2 2 1 1 1 0 0 1 2 1 2 2 3 3 3 2 2 2 2 3 4 3 2 4 3 4 4 5 7 8 8
5 5 5 5 5 5 5 5 6 4 3 2 2 2 1 1 1 1 2 3 2 2 1 0 1 2 2 2 2 2 3 3 3 2 2 4 4 4 5 5 6 7 7
6 5 5 6 6 5 6 5 5 4 4 3 3 3 2 2 2 3 3 3 3 3 4 4 3 3 4 4 2 0 1 1 3 2 1 3 3 4 4 5 5 6 7
6 6 7 6 6 5 7 6 5 4 4 4 4 4 6 5 5 5 4 3 3 3 3 4 5 6 5 6 6 2 1 2 2 3 1 2 3 3 4 3 3 4 4
Wind_Direction
145 140 131 117 110 104 104 99 94 95 102 115 132 143 151 153 155 158 173 179 174 171 171 174 176 172 168 168 170 168 166 164 162 162 162 161 160 160 159 157 155 154 153
154 152 148 141 133 127 119 116 112 108 108 115 129 145 151 151 156 160 164 185 186 182 183 185 186 183 180 179 181 180 181 178 173 173 173 173 174 176 174 172 170 166 166
162 159 158 160 152 135 124 109 95 92 104 110 119 128 142 152 159 167 166 176 193 195 193 196 198 197 195 191 192 192 190 185 180 181 184 184 183 185 183 181 183 181 180
167 159 165 173 152 133 125 118 108 99 93 103 115 122 130 140 162 171 172 182 190 202 209 211 209 208 209 208 204 202 199 197 193 192 195 197 196 193 194 195 197 195 194
172 164 170 167 148 138 134 137 109 120 123 117 114 93 106 150 180 191 199 203 207 210 212 225 224 221 221 221 218 213 209 206 202 203 205 207 206 201 202 205 206 205 206
175 168 169 163 152 143 139 127 118 95 109 126 105 79 36 315 207 216 225 219 220 223 222 229 232 236 234 232 228 226 221 215 209 210 213 213 213 210 210 212 213 213 214
175 172 171 161 160 160 161 147 127 114 103 114 95 58 19 2 262 238 230 229 232 230 225 226 226 232 242 239 233 233 232 228 220 217 218 217 215 214 214 216 219 220 220
177 181 170 167 165 153 151 153 140 127 114 120 125 107 35 350 329 264 235 228 235 232 232 230 224 227 233 233 237 235 235 235 231 225 222 220 218 216 215 219 224 227 227
180 176 172 166 167 165 170 170 158 147 147 131 129 140 149 215 291 315 275 245 236 229 237 236 231 231 230 228 232 238 237 235 236 235 228 223 221 221 220 223 228 229 230
180 174 170 168 168 170 172 177 169 156 146 154 139 111 144 154 158 301 317 293 256 237 238 239 236 230 225 225 227 231 235 234 236 238 235 228 223 224 225 227 232 233 233
180 175 171 169 171 174 176 170 161 161 157 158 159 150 131 105 128 156 260 306 300 258 241 239 238 235 228 226 230 234 233 234 236 238 237 235 230 226 227 231 237 240 239
177 176 171 172 174 174 178 176 169 168 168 159 158 159 160 162 179 171 196 242 269 283 269 246 236 236 231 227 234 234 231 231 233 235 238 237 234 233 233 235 240 244 246
184 184 178 176 176 178 177 170 168 174 173 168 172 176 181 183 163 160 165 195 247 288 298 266 239 236 236 228 236 236 234 230 230 232 234 235 234 236 237 239 242 246 250
190 181 179 180 180 177 176 170 170 180 175 179 186 178 182 193 182 176 171 160 179 289 290 276 276 237 236 229 235 233 239 233 230 229 230 232 233 235 236 238 242 246 249
184 179 179 180 181 178 176 171 177 184 177 184 188 188 191 198 195 195 184 173 167 203 256 268 268 264 243 237 237 228 231 235 232 230 229 231 233 236 237 240 243 246 248
180 175 177 177 179 178 176 174 177 184 182 188 188 191 198 197 196 193 194 192 187 187 226 252 254 275 277 264 239 230 235 238 238 235 232 232 234 237 239 241 243 246 247
172 177 178 176 177 180 179 178 188 186 191 195 193 195 205 191 190 192 190 191 193 187 218 255 257 270 273 274 281 248 244 242 246 241 239 239 239 240 242 244 245 246 248
174 176 175 175 181 184 181 184 197 194 195 198 199 195 206 194 194 193 194 202 204 201 207 237 254 260 261 276 276 272 266 252 251 253 246 244 243 243 243 245 247 248 248
169 171 175 181 186 184 185 191 196 196 200 202 198 198 203 189 202 201 203 208 211 205 206 221 246 249 263 282 282 283 287 282 274 266 252 244 245 246 247 248 250 251 251
166 175 183 184 185 183 185 185 184 191 197 199 196 200 201 198 207 204 206 212 207 203 202 218 239 251 259 269 256 267 288 280 288 294 280 269 259 252 252 252 255 255 252
164 164 165 169 171 177 187 176 175 178 180 185 188 195 193 191 200 199 203 204 196 200 204 220 236 246 254 246 247 247 267 286 278 270 281 275 269 267 265 260 258 256 255
130 136 146 149 160 184 171 163 161 157 162 174 183 192 185 189 227 219 218 193 182 193 207 212 232 245 261 252 251 248 263 285 286 271 265 276 260 268 269 263 262 259 260
110 102 101 108 107 109 133 143 148 150 156 167 167 161 148 70 86 79 139 108 96 79 197 204 232 248 260 253 247 254 245 247 261 285 271 279 274 275 277 276 270 269 269
101 95 90 94 90 69 82 111 122 127 120 108 109 128 132 60 58 130 117 90 67 39 35 97 253 277 288 288 249 258 267 267 265 266 253 274 284 281 289 284 277 273 274
91 82 78 80 78 58 58 87 115 118 102 83 66 63 88 84 50 102 112 100 70 41 48 51 47 28 23 21 18 19 323 293 291 289 252 272 287 290 285 279 282 280 279
97 89 75 67 68 57 48 62 93 103 101 86 62 51 55 67 65 80 97 92 68 23 20 28 33 28 26 26 30 26 336 302 294 294 330 295 293 308 297 287 299 305 299